EN

Hourly Weather Osiniec

Today, 14 May, Friday

Time Temperature Precipitation Wind Pressure Humidity
00:00 +14°C° 0 mm 1 mps 739 mmHg 73%
01:00 +13°C° 0 mm 1 mps 739 mmHg 76%
02:00 +13°C° 0 mm 1 mps 739 mmHg 78%
03:00 +13°C° 0 mm 1 mps 739 mmHg 81%
04:00 +13°C° 0 mm 2 mps 739 mmHg 84%
05:00 +13°C° 0 mm 2 mps 739 mmHg 85%
06:00 +14°C° 0 mm 2 mps 740 mmHg 85%
07:00 +13°C° 0 mm 3 mps 740 mmHg 86%
08:00 +13°C° 0 mm 3 mps 740 mmHg 84%
09:00 +14°C° 0 mm 3 mps 740 mmHg 82%
10:00 +15°C° 0 mm 4 mps 741 mmHg 80%
11:00 +15°C° 0.1 mm 4 mps 741 mmHg 81%
12:00 +15°C° 0.1 mm 5 mps 741 mmHg 81%
13:00 +15°C° 0.1 mm 5 mps 741 mmHg 81%
14:00 +14°C° 0 mm 5 mps 742 mmHg 83%
15:00 +14°C° 0 mm 6 mps 742 mmHg 84%
16:00 +13°C° 0 mm 6 mps 742 mmHg 86%
17:00 +12°C° 0 mm 5 mps 742 mmHg 87%
18:00 +12°C° 0 mm 5 mps 743 mmHg 88%
19:00 +11°C° 0 mm 4 mps 743 mmHg 89%
20:00 +11°C° 0 mm 4 mps 743 mmHg 89%
21:00 +11°C° 0 mm 4 mps 743 mmHg 88%
22:00 +10°C° 0 mm 4 mps 744 mmHg 88%
23:00 +10°C° 0 mm 4 mps 744 mmHg 88%

Tomorrow, 15 May, Saturday

Time Temperature Precipitation Wind Pressure Humidity
00:00 +10°C° 0 mm 4 mps 744 mmHg 89%
01:00 +10°C° 0 mm 4 mps 744 mmHg 90%
02:00 +8°C° 0 mm 4 mps 744 mmHg 91%
03:00 +8°C° 0 mm 4 mps 744 mmHg 92%
04:00 +8°C° 0 mm 4 mps 744 mmHg 93%
05:00 +8°C° 0 mm 4 mps 745 mmHg 91%
06:00 +10°C° 0 mm 4 mps 745 mmHg 89%
07:00 +10°C° 0 mm 4 mps 745 mmHg 87%
08:00 +12°C° 0 mm 4 mps 745 mmHg 80%
09:00 +13°C° 0 mm 3 mps 746 mmHg 72%
10:00 +16°C° 0 mm 3 mps 746 mmHg 65%
11:00 +17°C° 0 mm 3 mps 746 mmHg 62%
12:00 +18°C° 0 mm 2 mps 745 mmHg 58%
13:00 +18°C° 0 mm 2 mps 745 mmHg 55%
14:00 +18°C° 0.1 mm 2 mps 745 mmHg 57%
15:00 +18°C° 0.1 mm 2 mps 745 mmHg 58%
16:00 +18°C° 0.1 mm 2 mps 744 mmHg 60%
17:00 +17°C° 0.2 mm 2 mps 744 mmHg 66%
18:00 +16°C° 0.2 mm 2 mps 744 mmHg 72%
19:00 +15°C° 0.2 mm 2 mps 744 mmHg 78%
20:00 +13°C° 0.3 mm 3 mps 744 mmHg 82%
21:00 +13°C° 0.3 mm 3 mps 744 mmHg 87%
22:00 +12°C° 0.3 mm 3 mps 743 mmHg 91%
23:00 +12°C° 0.3 mm 3 mps 743 mmHg 92%

Day after tomorrow, 16 May, Sunday

Time Temperature Precipitation Wind Pressure Humidity
00:00 +11°C° 0.3 mm 3 mps 743 mmHg 93%
01:00 +11°C° 0.3 mm 3 mps 743 mmHg 94%
02:00 +11°C° 1 mm 3 mps 742 mmHg 95%
03:00 +11°C° 1 mm 3 mps 742 mmHg 97%
04:00 +11°C° 1 mm 3 mps 742 mmHg 98%
05:00 +11°C° 1.5 mm 3 mps 742 mmHg 96%
06:00 +11°C° 1.5 mm 3 mps 742 mmHg 95%
07:00 +11°C° 1.5 mm 3 mps 743 mmHg 94%
08:00 +11°C° 0 mm 3 mps 743 mmHg 90%
09:00 +11°C° 0 mm 4 mps 743 mmHg 86%
10:00 +12°C° 0 mm 4 mps 743 mmHg 82%
11:00 +13°C° 0 mm 4 mps 743 mmHg 77%
12:00 +13°C° 0 mm 4 mps 743 mmHg 71%
13:00 +14°C° 0 mm 4 mps 743 mmHg 65%
14:00 +15°C° 0 mm 4 mps 743 mmHg 64%
15:00 +16°C° 0 mm 3 mps 743 mmHg 64%
16:00 +16°C° 0 mm 3 mps 743 mmHg 63%
17:00 +15°C° 0 mm 2 mps 743 mmHg 68%
18:00 +14°C° 0 mm 2 mps 743 mmHg 73%
19:00 +13°C° 0 mm 2 mps 743 mmHg 78%
20:00 +12°C° 0 mm 2 mps 743 mmHg 80%
21:00 +10°C° 0 mm 2 mps 743 mmHg 83%
22:00 +9°C° 0 mm 3 mps 743 mmHg 85%
23:00 +9°C° 0 mm 3 mps 743 mmHg 87%

17 May, Monday

Time Temperature Precipitation Wind Pressure Humidity
00:00 +9°C° 0 mm 3 mps 743 mmHg 89%
01:00 +8°C° 0 mm 2 mps 743 mmHg 91%
02:00 +8°C° 0.1 mm 2 mps 743 mmHg 92%
03:00 +8°C° 0.1 mm 3 mps 743 mmHg 93%
04:00 +8°C° 0.1 mm 3 mps 743 mmHg 95%
05:00 +9°C° 0.1 mm 3 mps 743 mmHg 91%
06:00 +10°C° 0.1 mm 2 mps 743 mmHg 87%
07:00 +13°C° 0.1 mm 2 mps 743 mmHg 83%
08:00 +13°C° 0 mm 3 mps 743 mmHg 76%
09:00 +14°C° 0 mm 3 mps 743 mmHg 69%
10:00 +15°C° 0 mm 4 mps 743 mmHg 62%
11:00 +17°C° 0.1 mm 4 mps 743 mmHg 62%
12:00 +16°C° 0.1 mm 5 mps 743 mmHg 62%
13:00 +16°C° 0.1 mm 5 mps 743 mmHg 62%
14:00 +15°C° 0.2 mm 5 mps 743 mmHg 65%
15:00 +14°C° 0.2 mm 5 mps 743 mmHg 69%
16:00 +14°C° 0.2 mm 5 mps 744 mmHg 73%
17:00 +13°C° 0.1 mm 5 mps 744 mmHg 77%
18:00 +12°C° 0.1 mm 4 mps 744 mmHg 80%
19:00 +11°C° 0.1 mm 4 mps 744 mmHg 84%
20:00 +10°C° 0 mm 4 mps 744 mmHg 86%
21:00 +10°C° 0 mm 4 mps 744 mmHg 89%
22:00 +8°C° 0 mm 4 mps 744 mmHg 91%
23:00 +8°C° 0 mm 4 mps 744 mmHg 93%

18 May, Tuesday

Time Temperature Precipitation Wind Pressure Humidity
00:00 +7°C° 0 mm 4 mps 745 mmHg 94%
01:00 +6°C° 0 mm 4 mps 745 mmHg 96%
02:00 +6°C° 0 mm 4 mps 745 mmHg 95%
03:00 +6°C° 0 mm 4 mps 745 mmHg 95%
04:00 +7°C° 0 mm 4 mps 745 mmHg 94%
05:00 +7°C° 0 mm 4 mps 745 mmHg 92%
06:00 +8°C° 0 mm 4 mps 746 mmHg 90%
07:00 +8°C° 0 mm 4 mps 746 mmHg 89%
08:00 +11°C° 0.1 mm 4 mps 746 mmHg 84%
09:00 +12°C° 0.1 mm 5 mps 746 mmHg 78%
10:00 +13°C° 0.1 mm 5 mps 746 mmHg 73%
11:00 +13°C° 0.3 mm 5 mps 747 mmHg 74%
12:00 +13°C° 0.3 mm 5 mps 747 mmHg 74%
13:00 +13°C° 0.3 mm 5 mps 747 mmHg 75%
14:00 +13°C° 0.4 mm 5 mps 747 mmHg 76%
15:00 +13°C° 0.4 mm 5 mps 747 mmHg 76%
16:00 +13°C° 0.4 mm 4 mps 747 mmHg 77%
17:00 +12°C° 0.5 mm 4 mps 748 mmHg 80%
18:00 +12°C° 0.5 mm 4 mps 748 mmHg 84%
19:00 +11°C° 0.5 mm 4 mps 748 mmHg 88%
20:00 +10°C° 0 mm 3 mps 748 mmHg 90%
21:00 +10°C° 0 mm 3 mps 748 mmHg 92%
22:00 +9°C° 0 mm 3 mps 749 mmHg 94%
23:00 +8°C° 0 mm 3 mps 749 mmHg 95%

19 May, Wednesday

Time Temperature Precipitation Wind Pressure Humidity
00:00 +8°C° 0 mm 3 mps 749 mmHg 96%
01:00 +7°C° 0 mm 3 mps 749 mmHg 97%
02:00 +7°C° 0 mm 3 mps 749 mmHg 97%
03:00 +5°C° 0 mm 3 mps 749 mmHg 97%
04:00 +5°C° 0 mm 3 mps 749 mmHg 97%
05:00 +7°C° 0 mm 3 mps 749 mmHg 94%
06:00 +7°C° 0 mm 4 mps 749 mmHg 91%
07:00 +8°C° 0 mm 4 mps 749 mmHg 87%
08:00 +11°C° 0 mm 4 mps 749 mmHg 80%
09:00 +12°C° 0 mm 4 mps 749 mmHg 72%
10:00 +14°C° 0 mm 4 mps 748 mmHg 64%
11:00 +14°C° 0.2 mm 5 mps 748 mmHg 66%
12:00 +13°C° 0.2 mm 5 mps 748 mmHg 68%
13:00 +13°C° 0.2 mm 6 mps 747 mmHg 71%
14:00 +12°C° 0.2 mm 5 mps 747 mmHg 76%
15:00 +12°C° 0.2 mm 5 mps 747 mmHg 80%
16:00 +11°C° 0.2 mm 4 mps 747 mmHg 85%
17:00 +10°C° 0.1 mm 4 mps 747 mmHg 86%
18:00 +10°C° 0.1 mm 4 mps 747 mmHg 87%
19:00 +10°C° 0.1 mm 3 mps 746 mmHg 88%
20:00 +9°C° 0 mm 3 mps 746 mmHg 91%
21:00 +8°C° 0 mm 3 mps 747 mmHg 93%
22:00 +7°C° 0 mm 3 mps 747 mmHg 95%
23:00 +7°C° 0 mm 3 mps 747 mmHg 95%
Show more

We Need Your Consent

Meteoprog and our Service Providers may store and access personal data such as cookies, device identifiers or other similar technologies on your device and process such data to personalise content and ads, as well as provide social media features and to analyse the traffic.

  • Store and/or access information on your device

    Cookies, device identifiers or other information can be stored or accessed on your device for the purposes indicated above.

  • Personalised ads and content, ad and content measurement, audience insights, and products development

    Ads and content can be personalised based on a profile. More data can be added to better personalise ads and content. Ad and content performance can be measured. Insights about the audience who saw the ads and content can be derived. Such data can be used to develop or improve user’s experience, systems and software.

By clicking ‘I Agree’ you will allow the use of indicated cookies, device identifiers, web beacons or other similar technologies. Your settings can be changed in the browser on your device.

For certain purposes, legitimate interests may be relied on, rather than consent. You can read more about this in our Privacy and Cookie Policy.